Theta_e
314 315 314 315 315 315 314 314 315 314 314 314 314 314 314 314 314 314 314 314 313 313 313 313 313 313 313 313 313 313 313 313 312 312 311 311 310 310 310 310 310 310 310 310 310 310 310 310 310 310 310 310 310 309 309 309 309 308 308 307 307 306 305 304 303 306 309 308 306 307 307 306 305 305 305 305 305 305 305 305 305 306 306 306 307
314 314 314 314 314 314 314 314 314 314 314 314 314 313 314 314 313 313 313 312 312 312 312 311 311 311 311 311 311 311 311 311 311 311 311 311 310 310 310 310 310 310 309 309 309 309 309 309 309 309 309 309 309 309 309 309 309 309 309 308 308 308 307 305 304 304 307 308 307 306 306 305 305 305 305 304 305 304 304 304 305 305 305 305 306
314 314 314 314 314 314 314 314 314 314 313 313 313 313 312 312 312 311 311 311 311 311 311 310 310 310 310 310 310 310 310 310 310 310 309 309 309 309 309 309 309 309 309 309 309 309 309 309 309 308 308 308 308 308 308 308 308 308 308 308 308 308 308 306 305 304 305 307 307 305 305 305 305 305 305 304 304 304 303 304 304 304 304 304 304
314 314 314 314 314 314 314 314 313 313 312 312 312 311 311 311 311 311 310 310 310 310 310 310 310 310 310 310 310 309 309 309 309 309 309 309 308 308 308 308 307 307 307 307 306 306 306 306 307 307 307 308 308 308 308 308 308 308 308 308 308 308 308 306 305 304 303 305 307 307 305 305 306 306 304 304 304 304 303 303 303 303 303 302 303
314 314 314 314 314 314 313 313 312 312 311 311 311 311 311 310 310 310 310 310 310 310 310 310 310 310 310 310 309 309 309 308 308 307 306 305 305 304 304 303 303 303 302 302 302 302 302 302 302 302 303 303 303 304 305 306 307 307 307 308 307 307 307 306 304 304 302 303 306 307 306 305 306 306 305 304 304 304 304 303 303 302 302 302 302
314 314 314 314 313 313 313 312 311 311 311 311 310 310 310 310 310 310 310 310 310 310 310 310 309 309 308 308 307 306 305 304 304 303 302 302 301 301 301 301 300 300 300 300 300 299 299 299 299 299 299 299 299 300 300 301 303 304 304 305 306 307 306 306 304 303 302 302 304 306 307 306 305 306 306 305 303 304 303 303 303 303 302 303 303
314 314 313 313 313 312 312 311 311 311 310 310 310 310 310 310 310 310 310 310 309 309 309 308 307 306 305 304 303 302 301 301 301 301 300 300 300 300 300 299 299 299 298 298 298 298 297 297 297 297 297 297 297 297 297 298 298 299 300 300 302 304 305 305 304 302 301 302 302 303 305 306 305 305 306 304 303 303 303 302 303 303 302 302 302
313 313 313 313 312 312 311 311 310 310 310 310 310 310 310 310 310 309 309 308 307 306 305 304 303 302 301 301 301 301 300 300 300 300 299 299 298 298 298 297 297 297 297 297 297 297 296 296 296 296 296 296 296 296 296 296 296 296 297 297 298 300 302 303 303 302 301 300 301 302 302 303 304 304 304 303 302 303 302 300 301 302 301 301 301
313 313 312 312 311 311 310 310 310 310 310 310 310 310 309 309 308 307 306 305 303 303 302 301 301 301 301 300 300 300 299 298 298 297 297 297 297 297 296 296 296 296 296 296 296 296 296 296 296 295 295 295 295 295 295 295 295 295 295 295 296 298 299 300 301 301 300 299 300 301 300 301 303 303 302 302 301 301 301 299 299 300 300 300 301
313 312 311 311 311 310 310 310 310 310 310 309 309 308 307 306 304 303 302 301 301 301 301 300 300 300 300 299 299 298 297 297 296 296 296 296 296 296 296 296 296 296 296 296 296 296 296 295 295 295 295 295 295 294 294 294 294 294 294 294 295 296 297 298 299 299 299 298 299 299 299 300 302 301 300 301 300 299 299 298 298 299 299 299 300
312 311 311 310 310 309 309 309 309 309 308 308 306 304 303 302 301 300 300 300 300 300 300 300 300 299 299 298 297 297 296 296 296 296 296 295 295 295 295 295 295 295 295 295 295 295 295 295 295 294 294 294 294 294 294 294 294 294 293 293 293 294 295 295 296 297 298 297 297 298 298 298 300 300 300 300 299 298 298 298 298 298 298 298 299
311 311 310 310 309 309 309 309 309 308 306 304 302 301 300 300 300 300 300 300 300 300 300 299 299 298 297 297 296 296 296 296 295 295 295 295 295 295 295 295 295 295 295 294 295 294 294 294 294 294 294 294 293 293 293 293 293 293 293 293 293 293 293 294 294 294 296 297 297 297 297 298 298 298 299 299 298 298 298 298 298 298 298 298 298
311 310 309 309 309 309 308 307 306 304 302 301 300 300 300 300 300 300 300 300 300 299 298 298 297 296 296 296 296 295 295 295 295 295 295 294 295 294 294 294 294 294 294 294 294 294 293 293 293 293 293 293 293 293 293 292 292 292 292 292 292 292 292 292 293 293 294 295 296 295 294 295 296 296 297 298 297 297 297 297 297 297 297 297 297
309 309 309 308 308 307 306 304 302 301 299 299 299 300 300 300 300 300 300 299 298 298 297 296 296 296 296 296 295 295 295 295 295 295 294 294 294 294 294 294 294 294 294 293 293 293 293 293 293 293 293 293 292 292 292 292 292 292 292 292 292 292 292 292 292 292 293 293 294 294 293 293 295 295 295 297 296 296 296 296 297 297 297 297 297
308 308 308 307 306 304 303 301 299 299 299 299 299 300 300 300 300 299 299 298 297 297 296 296 296 296 296 295 295 295 295 295 295 294 294 294 294 294 294 294 294 293 293 293 293 293 292 292 292 292 292 292 292 291 291 291 291 291 291 291 291 291 291 291 291 291 291 291 292 292 292 291 292 293 293 295 296 296 295 295 295 296 296 296 296
307 307 306 305 303 301 300 299 299 299 299 299 300 300 300 300 299 298 297 297 296 296 296 296 296 296 296 296 295 295 295 294 294 294 294 294 294 294 294 293 293 293 293 293 293 293 292 292 292 292 292 292 292 291 290 290 290 290 290 290 290 291 291 291 291 290 290 291 291 291 291 291 291 291 292 293 295 296 295 293 294 295 295 295 295
307 305 304 302 300 299 299 299 299 299 300 300 300 300 300 298 297 297 297 296 296 296 296 296 296 296 295 295 295 295 294 294 294 294 294 294 294 293 293 293 293 293 293 293 293 293 292 292 292 291 291 292 292 291 290 290 289 289 290 290 290 290 291 291 291 290 290 290 290 290 290 291 290 290 291 291 293 295 293 293 294 295 294 294 294
305 303 300 299 298 298 299 299 299 300 300 300 299 299 297 297 296 296 296 296 296 296 296 296 295 295 295 295 294 295 294 294 294 294 293 293 293 293 293 293 293 293 293 293 293 292 292 292 292 291 291 291 291 291 290 290 289 289 289 289 289 290 290 291 290 290 290 290 290 290 290 290 290 290 291 290 291 293 293 293 295 295 294 293 294
301 299 298 298 298 299 299 299 300 300 299 298 298 297 296 296 296 296 296 296 296 295 295 295 295 295 294 294 294 294 294 293 293 293 293 293 292 292 292 292 292 292 292 292 292 292 292 292 292 291 291 291 291 290 290 289 289 288 289 288 289 289 290 290 289 289 289 289 289 290 290 290 290 290 290 290 290 291 292 293 294 294 293 294 295
299 298 298 298 298 299 299 299 299 298 297 297 297 297 296 296 296 296 296 295 295 295 295 295 294 294 294 294 294 293 293 293 293 292 292 292 292 291 291 291 290 291 291 291 291 291 291 291 291 291 291 290 290 290 289 289 288 288 288 288 288 289 289 289 288 288 289 288 289 289 289 289 290 290 290 290 290 290 291 291 292 292 292 294 295
298 298 298 298 299 299 299 299 298 297 297 297 297 296 296 296 296 295 295 295 295 294 294 294 294 294 293 293 293 293 292 292 292 292 291 291 291 290 290 290 289 289 289 290 290 290 290 290 290 290 290 289 289 289 288 288 288 288 288 288 288 288 288 288 288 288 288 288 288 288 289 289 289 289 289 290 290 290 290 290 290 290 291 292 293
297 298 298 299 299 299 298 297 297 297 297 297 296 296 296 295 295 295 295 294 294 294 294 293 293 293 293 293 292 292 292 291 291 291 290 290 289 289 289 289 288 288 288 288 288 288 288 289 289 289 289 288 288 288 288 287 287 287 287 287 287 287 287 287 287 288 288 288 288 288 288 288 289 289 289 289 289 289 289 289 289 289 290 291 291
297 298 299 299 298 298 297 297 297 297 297 296 296 295 295 295 294 294 294 294 293 293 293 293 293 292 292 292 292 291 291 291 290 290 289 289 289 288 288 288 287 287 287 287 287 287 287 287 287 287 287 287 287 287 287 287 287 287 287 287 287 287 287 287 287 287 287 287 287 288 288 288 288 289 289 289 289 288 288 288 288 289 289 290 291
298 298 298 298 297 297 297 297 297 296 296 296 295 295 295 294 294 294 293 293 293 293 292 292 292 291 291 291 291 291 290 290 289 289 288 288 288 288 288 287 287 287 286 286 286 286 286 286 287 287 286 286 287 287 287 287 287 287 287 287 287 286 286 286 286 286 287 287 287 287 287 287 288 288 288 288 288 287 288 288 288 289 289 290 291
298 298 297 297 296 297 297 296 296 296 295 295 295 294 294 294 293 293 293 292 292 292 291 291 291 290 290 290 290 290 289 289 289 288 288 288 288 287 287 287 287 286 286 286 286 286 286 286 286 286 286 286 286 286 286 286 286 286 286 286 286 285 285 285 286 286 287 287 287 287 287 287 287 287 287 287 287 287 287 287 288 288 289 290 290
297 297 296 296 296 296 296 296 296 295 295 295 294 294 293 293 292 292 292 291 291 291 290 290 289 289 289 289 289 289 289 288 288 288 287 287 287 287 287 287 286 286 285 285 285 285 285 286 286 286 286 286 286 286 286 286 286 286 285 285 284 284 284 285 285 286 287 287 287 287 287 287 287 287 286 287 287 287 287 287 288 289 289 290 290
296 296 296 296 296 296 296 295 295 295 294 294 294 293 293 292 292 291 291 290 290 289 289 289 288 288 288 288 288 288 288 288 287 287 287 287 287 287 286 286 286 285 285 285 285 285 285 285 285 285 285 285 285 285 284 284 284 284 283 283 283 284 284 284 285 286 286 287 287 287 287 287 287 286 286 286 287 287 287 288 289 289 289 289 289
296 296 296 296 296 296 295 295 294 294 294 293 293 292 292 292 291 290 290 289 289 289 288 288 288 287 287 287 287 287 287 287 287 286 286 286 286 286 286 285 285 284 284 284 284 284 285 285 284 284 284 283 283 283 283 282 282 283 283 283 284 284 285 285 286 286 286 286 287 287 287 287 286 286 286 287 287 287 288 288 288 289 289 289 289
296 297 296 296 296 295 295 294 294 294 293 293 292 292 291 291 290 289 289 288 288 288 287 287 287 287 286 286 286 286 286 286 286 285 285 285 285 284 284 284 284 284 283 283 283 283 284 284 283 282 282 281 281 282 282 283 283 284 284 284 285 285 285 286 286 286 286 286 287 287 287 287 287 287 287 287 288 288 288 288 288 288 288 288 288
296 296 296 296 295 295 294 294 294 293 293 292 292 291 291 290 289 289 288 288 287 287 287 287 286 286 286 286 285 285 285 285 285 285 285 285 285 284 284 284 283 283 282 282 282 282 282 281 281 280 280 280 281 281 282 283 283 283 283 283 283 284 284 284 285 285 285 286 286 287 287 287 288 288 288 288 288 287 288 288 287 288 288 288 288
296 296 296 295 295 295 294 294 293 292 292 292 291 291 290 289 288 288 288 287 287 287 286 286 286 286 286 285 285 285 284 284 284 284 284 284 284 284 284 284 283 282 281 280 280 281 281 279 278 279 279 279 280 281 281 281 281 281 282 282 282 283 283 283 284 284 285 285 285 285 286 286 287 287 287 287 287 286 287 287 287 287 287 287 287
296 295 295 295 294 294 293 293 292 292 292 291 290 290 289 289 288 288 287 287 286 286 286 286 286 285 285 285 285 285 284 284 284 283 283 283 283 283 283 283 283 282 282 281 280 280 279 278 277 278 279 279 279 280 280 280 281 281 281 282 282 282 283 283 284 284 284 284 284 285 285 285 285 286 286 286 286 286 286 287 287 287 287 287 287
295 295 295 294 294 293 292 292 291 291 291 290 289 289 288 288 288 288 287 287 286 286 286 285 285 285 285 284 284 284 284 283 283 282 282 281 281 282 282 282 282 281 281 281 280 279 278 277 277 278 278 279 279 280 280 280 280 281 281 281 282 282 283 283 283 284 284 284 284 285 285 285 285 285 285 285 286 286 286 286 287 287 287 287 287
295 295 294 293 293 292 291 291 290 290 289 289 288 288 287 287 287 287 287 287 287 286 286 285 285 285 284 284 283 283 282 282 282 281 281 281 280 280 281 281 281 281 280 279 279 278 277 277 278 278 279 279 280 280 280 280 280 280 280 281 282 282 283 283 283 283 284 284 284 284 284 285 285 285 285 285 285 286 286 286 286 286 286 286 286
294 294 293 292 292 291 290 290 289 289 288 288 287 287 287 287 287 287 286 286 286 286 286 285 285 284 284 283 282 281 281 281 281 280 280 280 280 279 279 280 281 281 280 279 278 278 278 278 278 279 279 280 280 280 280 280 280 280 280 281 282 282 283 283 283 283 284 284 284 284 284 284 284 285 285 285 285 285 286 286 286 286 286 286 286
294 293 292 291 291 290 289 289 288 288 287 287 286 286 286 286 286 286 286 286 286 285 285 285 284 283 283 282 281 281 280 280 280 279 279 279 278 278 278 279 279 279 279 279 278 278 277 277 277 278 278 279 279 279 279 279 279 280 280 281 282 282 282 282 283 283 283 283 284 284 284 284 284 284 285 285 285 285 285 286 286 286 286 286 286
293 293 292 290 290 289 288 288 287 287 286 286 286 286 286 286 286 286 286 285 285 285 284 284 283 283 282 281 281 280 280 280 279 279 278 278 278 277 277 277 277 277 277 277 277 277 277 277 277 277 277 277 277 278 278 278 278 279 280 281 281 281 282 282 282 282 282 283 283 283 284 284 284 284 284 285 285 285 285 285 286 286 286 286 286
293 292 291 290 289 288 287 287 286 286 286 286 286 286 285 285 285 285 285 285 284 284 284 283 282 282 281 281 280 280 280 279 279 279 279 278 278 277 277 276 276 276 276 276 276 276 276 276 276 276 276 276 276 277 277 277 278 279 279 280 280 281 281 281 281 281 282 282 282 283 283 284 284 284 284 284 284 285 285 285 285 285 285 286 285
292 291 290 289 288 287 286 286 285 285 285 285 285 285 285 285 285 285 284 284 284 283 282 282 281 281 280 280 280 279 279 279 278 278 278 278 278 277 277 277 276 276 276 276 276 276 276 276 276 275 275 276 276 276 276 276 277 277 278 279 279 280 280 280 280 281 281 282 282 283 283 283 283 284 284 284 284 284 285 285 285 285 285 285 285
291 289 288 287 286 286 285 285 285 285 285 285 285 284 284 284 284 284 284 283 283 282 281 281 280 280 279 279 279 279 278 278 277 277 277 277 277 277 277 276 276 276 276 276 276 276 275 275 275 275 275 275 275 275 275 275 276 276 277 278 278 279 279 279 279 280 280 281 282 282 283 283 283 283 284 284 284 284 285 285 285 285 285 285 285
289 288 287 286 285 285 285 284 284 284 284 284 284 284 284 284 283 283 283 282 282 281 281 280 280 279 279 278 278 277 277 277 277 277 276 276 276 276 276 276 276 276 276 276 276 276 276 275 275 275 275 275 275 275 275 275 275 276 276 277 278 278 278 278 279 279 279 280 281 281 282 282 283 283 283 284 284 284 285 285 285 285 285 285 285
287 286 286 285 285 284 284 284 284 284 283 283 283 283 283 283 283 282 282 282 281 281 280 280 279 279 278 277 277 277 276 276 276 276 276 276 276 276 275 275 275 275 275 275 275 275 275 275 275 274 274 274 274 275 275 275 275 275 276 276 277 277 278 278 278 278 278 279 280 281 281 282 282 283 283 284 284 284 284 285 285 285 285 284 284
286 285 285 284 284 284 284 283 283 283 283 283 283 282 282 282 282 282 281 281 280 280 280 279 279 278 277 277 276 276 276 275 275 276 276 276 276 276 275 275 275 275 274 275 275 275 275 275 275 274 274 274 274 274 274 274 274 275 275 276 276 277 277 278 278 278 278 278 279 280 281 281 282 282 283 283 283 283 284 284 284 284 284 284 284
285 284 284 284 283 283 283 283 283 282 282 282 282 282 282 281 281 281 281 280 280 279 279 278 278 277 277 276 276 275 275 275 275 275 275 275 275 275 275 275 275 274 274 274 274 274 275 275 275 275 275 274 274 274 274 274 274 274 275 275 276 276 277 277 277 277 277 278 278 279 280 281 281 282 282 283 283 283 283 283 283 283 283 283 283
284 284 283 283 283 283 282 282 282 282 282 281 281 281 281 281 281 280 280 280 279 278 278 277 277 276 276 275 275 274 274 274 274 274 274 274 274 274 274 274 274 274 274 274 274 274 274 274 275 275 275 275 275 274 274 274 274 274 274 275 275 276 276 277 277 277 277 277 278 278 279 279 280 281 281 282 282 282 282 283 283 282 282 282 282
283 283 283 282 282 282 282 282 281 281 281 281 281 281 280 280 280 280 279 279 278 277 277 276 276 275 275 274 274 273 273 273 273 273 273 273 273 273 273 273 273 273 273 273 273 274 274 274 274 274 274 275 275 275 274 274 275 275 274 275 275 275 276 276 277 277 277 277 277 278 278 278 279 280 280 281 282 282 282 282 282 282 282 282 281
282 282 282 282 282 282 281 281 281 281 280 280 280 280 280 279 279 279 278 277 277 276 276 275 275 274 274 274 273 273 273 273 273 273 273 272 272 272 272 272 272 273 273 273 273 273 273 274 274 274 274 274 274 274 275 275 275 275 275 275 275 276 276 276 276 277 277 277 277 277 278 278 278 279 279 280 280 281 281 282 282 282 282 281 281
282 282 281 281 281 281 281 280 280 280 280 279 279 279 279 278 278 277 277 276 276 275 275 274 274 274 274 273 273 272 272 272 272 272 272 272 272 272 272 272 272 272 272 272 272 272 272 273 273 273 274 274 274 274 274 275 275 275 275 275 275 275 275 275 276 276 277 277 277 277 277 277 277 278 278 279 279 280 280 281 281 281 281 281 281
281 281 281 281 280 280 280 279 279 279 279 279 278 278 278 277 277 276 276 275 275 274 274 274 274 273 273 273 273 272 272 272 272 272 272 272 272 272 272 272 272 272 272 272 272 272 272 272 272 272 273 273 273 274 274 274 274 274 275 275 275 275 275 275 275 276 276 277 277 277 277 277 277 277 277 278 278 278 278 279 279 280 280 280 280
280 280 280 280 280 279 279 279 278 278 278 278 277 277 277 276 276 275 275 275 274 274 274 273 273 273 273 272 272 272 272 272 272 272 272 272 272 271 271 271 271 272 272 272 272 272 271 271 271 271 272 272 272 273 273 273 273 273 274 274 274 274 274 275 275 275 276 276 277 277 277 277 277 277 277 277 277 277 277 278 278 278 279 279 279
280 280 279 279 279 279 278 278 278 277 277 277 276 276 276 275 275 274 274 274 274 273 273 273 273 273 272 272 272 272 272 272 272 272 272 272 272 271 271 271 271 271 271 271 272 271 271 271 271 271 271 271 271 272 272 272 272 272 272 273 273 273 274 274 274 275 275 275 276 276 277 277 277 277 277 277 277 277 277 277 277 277 277 278 278
Wind_Speed
8 7 5 3 2 1 2 3 5 6 8 9 10 11 12 13 14 15 15 15 15 16 16 16 16 16 16 16 16 16 17 17 17 18 18 19 19 20 22 24 25 27 27 28 28 29 30 30 31 31 31 33 33 32 33 33 34 35 35 37 38 36 35 37 43 53 56 52 50 51 49 47 48 47 47 47 46 44 43 42 40 39 39 40 40
6 4 3 1 1 2 4 5 7 8 9 9 10 11 12 13 13 13 13 13 12 12 13 14 14 14 14 14 14 15 15 16 16 17 17 18 18 19 19 21 22 23 24 24 25 26 27 28 29 29 30 32 33 32 33 33 34 36 36 37 39 39 37 37 40 47 54 54 50 50 49 48 49 49 48 49 49 48 48 47 45 45 44 43 43
3 2 1 1 2 4 5 6 7 8 8 9 9 9 10 10 10 10 10 10 10 11 11 12 12 13 13 14 14 14 15 15 16 16 17 18 18 19 19 20 21 22 22 23 23 23 24 24 24 25 26 28 29 29 30 31 32 33 35 35 37 39 39 38 39 43 50 53 51 49 49 49 50 50 49 49 50 50 50 51 49 49 48 47 47
2 1 1 3 4 5 6 7 7 8 8 7 7 7 7 7 7 7 7 8 9 10 10 11 12 12 13 13 14 14 15 15 16 16 17 18 19 19 19 20 20 21 22 22 23 23 24 25 24 24 24 26 27 27 28 29 29 30 32 32 34 36 37 37 37 40 45 50 51 49 49 50 50 50 50 50 50 50 51 51 50 50 49 48 46
2 2 3 4 5 6 7 7 7 7 6 5 4 4 4 5 5 6 7 8 9 9 10 11 11 12 13 13 14 15 15 16 17 17 18 18 19 19 20 20 21 21 22 22 23 24 25 25 25 25 26 27 28 28 28 29 30 31 32 32 33 35 36 36 36 37 40 46 50 49 48 49 49 49 49 49 49 50 50 50 50 50 49 47 46
3 4 4 5 6 7 7 6 5 4 3 3 2 2 3 4 5 6 7 8 9 9 10 11 12 12 13 14 15 15 16 17 17 18 19 19 20 21 21 22 22 23 24 24 25 25 26 27 27 27 28 29 30 30 30 31 31 33 33 34 35 35 37 37 37 37 39 43 47 48 47 48 49 48 47 47 48 49 50 50 50 50 49 48 47
4 5 6 7 7 6 5 4 3 3 3 2 2 2 3 4 5 6 7 8 9 9 10 11 12 13 13 14 15 15 16 17 18 19 20 21 22 23 24 25 25 26 26 27 27 28 29 30 30 30 30 31 32 32 33 33 34 35 35 35 36 36 38 38 38 38 40 42 45 47 48 48 49 49 47 47 48 49 50 50 50 50 49 48 47
6 7 7 7 7 6 5 4 4 4 3 2 2 2 3 4 5 6 6 7 8 9 9 10 11 11 12 13 14 16 17 19 20 21 22 23 24 24 25 26 26 27 28 28 29 29 31 31 32 32 32 32 33 33 34 35 36 37 37 36 36 37 38 38 39 39 40 42 45 47 49 50 51 51 49 48 50 50 49 48 50 51 49 48 49
7 8 8 7 7 7 7 6 6 4 3 2 2 2 3 3 4 4 5 6 7 7 8 9 10 11 12 14 15 17 18 19 20 21 22 23 23 24 25 25 27 28 28 29 29 30 31 32 32 33 33 34 34 34 35 35 37 38 39 38 38 38 38 38 39 39 40 42 45 47 48 51 53 52 51 50 50 50 48 47 50 52 51 50 51
8 8 8 9 9 9 8 7 6 5 3 2 2 1 1 1 2 3 4 5 6 7 8 10 11 12 14 15 16 17 18 19 20 21 22 23 24 25 26 27 28 29 31 32 33 33 33 34 35 35 35 36 36 36 37 37 37 38 39 39 39 38 39 39 40 40 39 41 44 46 47 51 53 52 51 51 50 49 48 48 50 51 50 50 53
9 10 10 11 11 10 9 7 6 5 3 3 2 2 1 1 1 2 3 5 7 9 11 12 14 15 16 17 18 18 19 21 21 22 24 25 27 28 29 30 31 31 33 35 36 37 37 37 37 38 38 38 39 39 39 39 39 39 39 39 39 39 39 40 42 41 40 40 43 45 47 51 54 53 52 52 50 49 49 48 49 49 48 49 52
11 12 12 12 12 10 9 7 6 5 4 4 4 3 2 1 2 4 6 8 10 12 14 15 17 18 18 19 19 20 21 22 23 24 26 27 29 31 32 33 34 34 35 36 38 39 40 40 40 40 40 40 40 40 41 41 40 40 40 40 41 41 40 40 42 43 41 40 43 46 48 51 53 53 52 51 49 48 48 47 47 48 48 48 51
14 14 14 13 12 10 8 7 6 6 5 4 4 2 1 3 5 8 10 12 13 15 16 17 18 19 20 20 21 21 22 23 24 26 27 28 30 32 33 35 36 37 37 38 39 40 41 41 42 43 42 41 41 41 41 42 42 42 42 42 43 43 43 42 42 42 41 41 43 47 48 49 51 52 51 49 48 48 48 48 47 47 48 50 52
15 15 14 13 12 10 8 7 7 6 5 3 2 2 4 6 8 10 12 14 15 16 17 18 19 20 21 22 22 22 23 24 25 27 28 29 31 33 35 36 37 38 39 39 40 41 42 42 44 45 45 44 43 42 42 43 44 44 45 45 46 46 45 45 44 43 42 41 43 46 45 45 48 49 47 47 48 49 49 50 49 49 50 51 52
16 15 14 12 11 9 8 8 7 5 3 2 3 5 7 9 11 12 14 15 16 17 18 18 19 20 22 23 24 25 25 26 28 29 30 32 33 35 36 38 39 40 41 41 42 42 43 43 44 46 47 47 46 45 44 45 45 47 48 48 49 49 48 49 47 46 45 44 45 46 45 44 45 46 45 45 45 46 47 48 48 50 51 51 51
16 14 13 12 11 10 9 7 6 4 2 3 5 7 9 11 12 13 14 15 16 17 19 20 21 23 24 26 28 29 29 30 31 33 34 35 37 38 39 41 42 43 44 44 45 45 46 46 46 48 49 50 49 47 47 46 46 48 50 51 51 52 52 52 50 49 48 48 46 46 46 46 46 46 45 45 45 45 43 43 45 47 49 50 50
15 14 13 12 11 10 8 6 5 4 4 5 7 9 10 12 13 14 15 16 18 19 21 23 25 26 28 29 31 32 33 33 34 36 37 38 40 41 42 43 45 46 46 47 48 49 49 48 49 50 51 52 52 50 50 48 48 50 52 53 54 55 57 56 54 52 50 49 48 48 48 48 47 47 46 45 46 43 40 41 43 44 46 47 48
15 14 13 12 11 9 8 6 5 5 6 7 9 10 11 13 14 16 17 19 21 22 24 26 27 28 30 31 33 34 35 35 36 37 38 39 40 41 42 44 45 46 47 48 49 50 50 50 50 51 52 52 52 52 52 51 51 52 53 53 55 58 60 59 56 55 53 52 51 51 51 50 50 49 48 47 47 43 40 41 41 42 45 47 47
15 15 13 12 10 9 7 6 5 6 7 8 10 11 13 14 16 18 20 22 23 25 26 28 29 29 31 32 33 34 35 35 35 36 36 37 39 40 41 43 44 46 47 49 50 50 51 51 51 52 53 53 53 54 54 54 53 53 53 53 54 59 61 59 57 57 56 55 55 54 54 54 53 52 51 50 49 47 45 43 41 41 45 48 48
16 15 13 12 10 8 7 6 6 7 8 10 11 13 15 17 19 21 22 24 25 26 28 29 30 30 31 31 32 32 33 34 34 35 35 36 38 39 41 43 45 47 48 49 51 52 52 53 53 53 54 54 55 56 57 57 56 56 55 53 54 58 59 57 57 57 56 55 56 56 57 57 56 55 54 53 52 51 49 46 43 41 43 46 48
16 14 12 10 8 7 6 6 7 8 9 11 13 15 17 19 21 22 23 25 26 27 28 29 30 30 30 30 30 31 32 33 33 34 35 36 37 39 41 43 45 47 49 50 52 53 54 55 55 56 56 57 58 58 59 59 59 58 57 56 56 56 55 53 56 58 56 56 56 56 56 57 56 55 55 53 52 52 49 47 44 42 41 42 45
14 12 10 9 7 6 6 7 8 9 11 13 14 16 18 19 21 22 23 25 26 26 27 28 29 29 29 29 30 30 31 32 33 34 36 37 38 40 42 43 45 46 49 51 53 55 56 58 59 59 59 60 60 60 60 60 60 59 59 58 58 56 53 51 52 54 54 55 54 53 54 55 54 54 53 52 51 49 47 46 44 43 42 42 42
13 11 9 8 7 6 7 7 9 10 12 14 15 17 18 19 21 22 23 25 25 26 26 27 28 29 29 30 30 31 31 33 34 36 37 39 40 42 43 44 45 46 48 51 53 55 57 59 60 61 61 61 61 61 61 61 62 61 60 59 58 56 52 50 50 50 49 50 49 50 51 52 51 51 50 49 48 47 45 45 44 44 44 43 42
12 10 9 8 7 7 7 8 10 12 13 15 16 17 19 20 21 22 23 23 24 24 25 26 27 29 31 32 33 33 34 35 36 38 40 42 43 45 46 47 48 49 50 52 54 55 57 59 60 60 61 61 61 61 61 61 61 60 59 58 57 53 50 48 48 47 46 46 46 47 49 50 48 47 47 47 46 46 45 45 44 43 43 43 42
11 10 8 7 7 7 8 10 11 13 14 16 17 18 19 20 20 21 21 22 23 24 25 26 28 30 32 34 36 37 38 39 40 41 42 44 46 47 49 50 51 52 52 53 54 55 56 57 58 58 59 59 59 59 60 60 59 58 56 55 52 49 48 47 46 45 45 45 45 46 47 47 45 45 45 45 44 45 45 43 42 41 41 43 43
10 9 8 7 7 8 10 11 12 14 15 16 18 19 19 19 19 19 20 21 22 24 25 27 29 31 33 35 37 39 40 41 42 43 45 47 48 50 52 53 54 54 53 53 53 54 55 55 55 56 57 57 57 56 57 57 56 54 53 51 49 47 47 46 45 44 45 45 45 45 45 44 44 44 44 44 44 44 42 41 41 42 42 43 43
10 9 8 8 9 10 11 12 14 15 16 17 17 18 18 18 18 19 20 21 23 24 26 28 30 32 34 36 38 40 41 42 44 45 47 49 51 52 54 54 54 53 52 51 51 52 53 53 53 53 53 53 52 52 51 50 49 49 49 49 47 46 45 44 43 43 43 44 44 45 44 43 43 44 44 43 43 42 40 39 42 43 43 42 43
10 9 9 9 10 12 13 14 14 15 16 17 17 17 17 17 18 19 20 22 24 25 27 29 31 33 35 37 39 41 42 44 45 46 48 49 51 52 53 53 52 50 48 47 47 48 50 51 51 51 49 48 48 48 47 47 46 46 47 47 47 47 46 44 42 41 42 43 43 44 43 42 43 43 43 42 42 42 40 40 42 43 43 42 42
10 10 11 11 12 13 14 15 16 16 17 17 17 17 17 17 18 19 20 22 23 25 27 29 31 33 34 36 39 41 43 44 45 46 46 47 47 47 48 48 46 45 44 42 42 44 47 47 47 46 45 45 46 47 48 47 47 47 48 47 48 48 47 45 44 44 45 44 43 44 45 45 44 43 43 43 42 41 39 40 41 42 42 40 40
11 12 12 13 14 14 15 16 17 18 18 17 16 16 16 16 18 19 20 21 23 25 27 28 30 32 34 36 36 37 39 42 43 44 45 45 45 44 44 43 41 40 39 38 39 41 42 42 41 41 41 42 44 46 47 48 49 49 49 49 48 48 47 46 46 46 45 43 43 44 44 44 43 43 42 41 41 41 41 41 41 41 40 39 39
12 13 14 15 15 16 17 17 18 18 18 18 17 17 16 16 17 19 20 21 23 25 27 28 30 32 34 35 35 35 36 37 39 40 41 42 43 43 43 42 40 38 36 34 34 37 38 38 39 40 40 41 43 44 46 48 49 50 50 50 49 48 47 47 47 46 46 45 45 44 43 42 43 43 41 40 41 42 42 42 41 39 38 38 38
13 14 15 16 16 17 17 17 17 17 17 18 18 17 17 18 19 20 21 22 23 25 27 29 31 32 33 34 35 36 37 37 37 38 38 39 40 40 41 41 40 37 35 32 32 33 34 35 37 39 41 42 43 45 46 47 48 49 49 49 49 48 48 47 47 46 46 46 45 44 44 43 43 43 42 41 41 41 41 40 39 38 37 37 37
15 16 17 17 17 17 17 17 17 17 17 17 17 17 18 20 21 22 23 23 24 26 27 29 30 31 32 33 34 35 36 36 36 36 36 36 37 38 38 38 37 35 34 33 33 33 33 34 36 37 39 40 41 42 43 43 44 45 45 46 47 47 47 46 46 45 44 44 43 43 43 42 42 42 41 40 40 40 40 39 37 36 36 36 36
17 17 17 17 17 17 17 17 17 17 16 16 17 17 18 20 21 23 24 25 27 28 29 30 30 31 31 32 32 33 34 34 34 35 35 35 35 35 36 36 35 33 31 31 31 31 31 32 33 34 35 36 37 38 39 40 40 42 43 44 45 45 45 45 44 43 42 42 41 41 40 40 39 39 39 39 38 38 38 37 36 35 35 34 34
18 18 18 18 18 17 17 17 16 16 16 16 16 17 18 19 21 22 24 26 28 31 31 31 31 30 30 31 31 31 31 32 33 33 33 34 34 34 34 35 35 34 32 31 31 30 30 30 31 32 33 34 35 36 37 38 40 41 42 43 43 43 44 43 42 41 40 40 40 39 38 37 37 36 36 37 36 36 36 36 35 34 34 34 33
18 19 19 19 18 17 17 17 16 16 16 16 16 17 18 19 21 22 24 26 28 30 31 31 30 30 29 29 30 30 30 30 31 32 32 32 32 32 33 33 33 33 32 31 32 32 31 31 31 32 33 34 36 36 37 38 40 40 39 39 40 41 41 40 40 38 38 37 36 36 35 34 33 33 33 34 34 34 34 34 33 32 32 32 31
19 20 20 19 19 18 17 17 16 15 16 16 16 17 18 19 21 22 24 26 28 29 29 30 30 30 29 29 29 30 29 30 30 31 31 32 32 31 31 31 31 31 31 31 32 33 33 33 32 32 33 34 36 37 37 38 38 38 38 38 38 38 37 37 36 36 35 35 34 33 32 31 31 30 30 30 31 31 30 31 30 29 29 29 29
20 21 20 20 19 18 17 16 15 15 16 16 16 17 18 19 20 22 24 25 26 27 28 28 28 29 30 30 30 30 30 30 30 31 32 32 33 33 32 31 29 29 29 30 31 32 33 33 33 33 33 34 36 36 37 37 37 37 37 37 37 36 35 35 35 34 34 33 33 32 31 31 30 28 27 27 28 27 27 26 26 26 27 27 27
21 21 21 20 18 17 16 15 15 16 16 16 16 16 17 18 20 22 23 24 25 25 26 26 26 27 28 29 30 30 31 31 31 32 32 33 33 33 33 32 31 30 29 30 31 32 33 33 33 33 33 33 34 35 35 35 36 35 34 34 35 35 35 34 34 34 33 32 31 30 30 29 28 26 25 25 25 24 22 21 20 22 24 25 24
22 21 20 19 18 17 16 16 16 16 15 14 15 16 17 18 19 21 22 23 23 24 24 25 25 25 26 27 28 30 31 31 31 31 32 32 32 32 32 33 32 31 30 30 31 32 33 33 33 33 32 32 32 33 33 34 34 33 32 33 34 35 35 34 34 33 33 31 30 29 28 27 26 25 25 23 22 20 19 18 18 21 23 23 22
21 20 19 18 17 17 16 16 15 14 13 13 14 15 16 17 19 20 21 21 22 23 23 24 24 25 25 26 27 27 28 29 29 29 30 30 31 31 32 32 31 31 31 30 31 32 33 33 33 33 32 31 31 31 32 32 33 33 33 33 34 34 34 33 33 33 33 32 31 30 28 26 25 25 25 23 20 19 18 18 19 20 22 21 20
21 20 19 18 17 17 16 15 14 13 12 13 14 14 15 16 17 19 20 20 21 22 23 23 24 25 25 25 26 26 27 28 28 28 29 29 29 30 30 30 30 30 30 30 30 31 32 33 33 32 32 31 31 31 31 32 33 33 34 34 34 33 33 32 31 32 33 33 31 30 28 27 25 24 24 23 21 20 20 20 19 19 19 17 16
21 20 19 18 18 17 15 14 13 12 12 13 13 14 15 16 17 18 19 20 21 22 23 24 25 25 25 25 25 26 26 27 27 28 28 29 29 29 29 29 29 29 28 28 28 29 30 31 32 31 31 30 30 30 30 31 31 32 33 33 33 32 32 31 31 32 33 34 32 29 27 26 25 24 23 22 21 20 19 19 18 17 16 14 13
22 21 20 19 17 16 15 14 13 12 12 12 13 14 14 15 16 18 19 21 22 23 23 24 25 25 25 25 25 25 25 25 26 27 27 28 28 28 29 29 29 28 28 27 27 27 28 29 30 30 29 28 28 28 28 28 29 30 31 32 32 31 31 30 30 31 32 32 32 30 27 25 25 24 22 21 20 19 18 17 16 15 14 12 11
22 21 20 18 17 16 15 13 13 13 13 12 13 13 14 15 17 18 20 21 22 22 23 23 23 24 25 25 24 25 25 25 25 26 26 27 27 27 28 28 29 28 28 27 27 27 27 28 29 29 29 28 27 27 27 27 26 27 28 29 29 29 29 29 28 28 29 29 30 29 27 25 24 23 22 20 19 17 16 15 14 13 12 11 9
22 20 19 18 17 16 15 14 13 13 13 13 13 13 14 16 17 18 20 21 21 21 22 22 22 23 24 24 24 25 25 25 25 26 26 26 27 27 27 27 28 28 28 28 27 27 26 26 27 27 28 28 27 27 27 26 26 25 25 26 26 26 26 27 26 25 25 26 27 27 26 25 23 22 20 19 18 16 15 14 12 12 11 10 9
21 20 18 18 17 16 15 14 13 13 13 13 14 14 15 16 17 18 19 20 20 21 21 21 22 23 24 25 25 26 26 26 26 26 27 27 27 27 27 28 27 28 27 27 27 27 27 26 26 26 27 27 27 26 25 25 25 25 25 25 24 24 25 26 26 24 23 23 23 23 24 24 23 22 20 18 16 15 14 13 12 10 10 9 9
20 19 18 18 17 16 15 14 13 13 14 14 14 14 15 16 17 18 19 19 19 20 21 21 22 23 24 25 26 27 27 28 28 28 28 28 28 28 28 28 28 28 28 27 27 27 27 27 27 27 26 27 27 26 25 25 24 25 25 25 24 24 25 26 25 24 22 21 20 19 19 20 21 21 20 18 16 15 14 12 11 10 9 8 7
20 19 19 18 17 15 15 14 13 14 14 14 14 15 15 16 17 18 18 19 19 19 20 22 23 24 25 26 27 28 28 29 29 29 29 29 29 29 29 29 29 28 28 28 28 27 27 27 27 27 27 27 27 27 27 26 25 25 25 24 24 24 24 25 24 24 22 21 19 18 17 17 17 19 19 18 17 16 14 12 11 9 8 7 6
20 19 18 18 16 15 14 14 14 14 14 15 15 15 16 16 17 17 18 19 19 19 20 21 23 24 25 27 28 29 30 30 30 30 30 30 30 30 30 30 29 29 29 28 28 27 27 27 27 27 27 27 27 27 27 27 26 26 26 25 25 24 24 24 24 23 22 21 20 19 17 15 14 14 15 16 16 16 15 14 12 10 8 7 5
20 19 18 17 16 15 15 15 14 15 15 15 15 16 16 17 17 17 18 19 19 20 21 22 23 24 26 27 28 30 30 31 31 32 32 32 31 31 31 31 30 30 30 29 29 28 27 27 27 27 27 27 27 27 27 26 26 26 26 26 25 25 24 24 23 23 22 21 20 19 18 16 15 13 13 12 12 13 13 13 13 11 9 8 6
Wind_Direction
126 126 121 120 110 28 333 328 324 317 314 309 307 305 301 299 300 302 306 310 315 319 321 324 327 330 332 333 333 332 331 330 328 326 324 321 318 315 312 311 309 310 309 309 310 309 309 309 309 311 310 308 307 307 305 302 300 298 295 294 293 290 286 280 277 284 290 290 289 292 294 294 295 295 295 297 297 297 297 296 293 291 289 288 288
130 133 133 142 291 318 317 318 312 305 301 296 295 295 292 294 298 301 308 315 323 329 332 335 339 342 343 343 343 342 340 340 339 338 337 335 333 331 328 325 323 323 323 323 323 321 318 317 319 320 317 313 313 312 310 306 302 299 297 294 293 292 289 285 283 285 290 293 293 293 295 295 293 294 296 295 296 296 294 293 291 289 288 287 286
142 151 190 270 301 309 307 304 296 290 286 283 286 288 289 295 301 309 320 328 337 344 345 346 349 351 352 352 351 351 349 349 348 346 345 344 344 345 343 341 340 339 339 339 337 334 331 330 331 328 321 317 318 318 315 312 307 304 301 298 295 294 290 286 284 284 287 293 294 292 293 294 292 293 294 294 294 293 292 291 290 289 288 286 285
185 223 272 293 302 302 296 289 282 277 274 275 283 288 294 306 317 329 341 347 351 353 351 351 353 353 354 354 353 353 352 352 352 351 350 350 350 351 350 349 348 347 346 345 344 341 339 338 338 334 327 323 324 324 321 318 314 310 307 304 300 298 294 288 284 283 284 289 294 294 292 292 294 295 294 293 294 292 291 291 290 289 288 286 285
225 254 281 292 293 287 280 273 267 265 267 275 289 300 315 333 344 350 354 356 354 352 350 350 352 353 354 354 354 354 353 353 354 353 352 351 351 351 350 348 347 346 344 343 341 339 337 335 335 333 328 326 326 326 323 320 317 314 312 311 308 304 300 294 289 287 283 285 293 298 296 294 296 297 295 294 294 293 292 292 290 289 288 288 287
243 267 277 279 278 273 266 263 260 266 277 289 309 330 342 347 351 351 352 353 351 349 349 351 352 354 355 356 357 356 355 353 352 351 349 347 346 345 343 342 340 338 337 335 334 332 330 329 329 327 326 324 323 322 321 319 316 314 312 312 310 306 302 299 294 290 286 285 290 296 297 296 295 296 297 295 294 293 293 292 292 291 290 291 291
250 263 269 272 274 270 263 262 262 265 271 281 313 332 338 339 342 345 348 351 350 351 353 354 356 358 358 359 358 355 352 349 346 344 341 339 337 336 335 334 333 331 331 330 329 328 327 326 325 325 324 323 322 321 319 317 315 313 311 311 309 306 303 301 297 292 288 288 289 291 295 297 294 294 297 296 293 292 291 290 293 294 293 293 294
257 264 269 271 268 258 246 239 234 232 236 252 294 316 325 331 337 343 347 349 351 354 356 357 358 358 356 354 352 348 344 340 338 336 333 332 330 330 329 329 328 327 327 327 327 326 325 324 324 323 323 322 321 319 318 317 315 313 312 312 310 307 304 301 298 293 289 288 289 291 292 294 294 294 295 294 291 291 292 291 293 295 294 294 295
263 263 263 255 243 233 225 219 216 214 220 244 278 303 320 330 340 345 348 351 353 355 354 353 351 348 346 344 341 339 336 334 333 331 329 328 327 327 327 327 326 326 325 325 324 324 324 323 323 323 322 321 320 319 318 316 315 313 313 313 312 309 306 302 298 294 290 287 288 290 289 290 293 293 291 291 290 291 294 292 290 293 294 294 295
256 250 243 234 226 220 213 206 202 204 210 224 240 270 299 326 345 344 346 348 348 348 344 342 340 338 338 338 337 336 334 331 331 331 329 329 327 327 327 327 326 326 325 324 323 323 323 322 322 322 321 321 320 319 318 316 315 314 313 312 310 308 306 303 300 295 290 287 288 290 287 288 293 292 289 291 291 289 290 289 288 292 293 291 292
245 236 230 225 217 209 202 197 197 200 203 204 205 207 215 237 318 331 339 339 338 338 338 336 336 336 336 337 337 336 334 332 332 332 331 330 328 328 327 327 327 326 325 324 323 323 322 321 321 320 320 320 319 318 317 316 315 313 312 309 307 305 303 302 301 298 292 287 289 290 286 286 293 294 290 290 290 287 287 288 288 289 288 286 288
236 229 222 215 208 202 199 199 201 202 199 195 194 196 206 251 321 331 334 335 336 337 337 336 336 336 336 337 338 338 336 334 333 332 332 330 328 327 327 327 326 325 325 324 323 322 322 321 320 319 319 319 318 317 316 315 314 312 310 307 305 303 302 300 299 298 295 291 290 291 290 290 293 295 293 290 288 287 287 286 286 286 285 283 283
225 218 212 206 203 201 201 201 199 196 191 189 194 208 283 321 332 335 336 337 337 337 337 337 337 336 336 337 338 338 336 334 332 332 331 330 328 326 326 325 325 324 324 324 323 322 322 321 319 318 319 319 318 317 316 314 313 310 308 306 305 304 303 300 298 297 295 293 291 292 295 295 293 295 296 292 287 286 285 284 284 285 283 282 282
212 207 204 202 200 199 198 195 192 189 188 195 235 305 328 334 336 336 336 336 335 335 335 336 336 336 335 334 334 335 334 333 332 331 330 329 328 326 326 325 324 324 324 324 323 322 322 321 320 319 318 318 318 318 317 314 312 310 307 306 306 305 304 302 301 299 298 296 293 293 297 297 294 296 298 293 286 283 283 282 283 283 282 282 285
203 201 201 200 198 197 194 191 190 192 203 254 309 323 328 332 334 333 333 333 332 333 333 333 333 332 331 330 330 333 334 333 332 331 330 329 327 326 325 324 323 323 322 322 322 321 321 320 320 319 318 317 318 319 318 315 312 310 308 307 306 306 304 303 303 303 302 299 296 295 298 299 298 297 298 295 290 286 283 282 282 282 282 282 282
200 200 200 198 196 194 192 192 197 210 255 293 311 321 324 326 327 327 329 329 329 330 331 330 330 330 330 331 330 332 334 334 333 332 331 330 327 326 325 324 323 322 321 321 320 320 320 320 320 319 318 317 317 318 318 316 312 310 309 308 307 306 304 304 305 304 303 301 299 299 299 300 300 299 298 297 293 289 285 282 281 280 280 280 279
200 200 198 196 194 194 195 202 218 243 278 296 307 316 319 322 324 324 326 327 328 329 329 330 331 332 332 333 331 330 333 334 333 332 331 330 327 326 325 323 322 321 320 319 319 318 318 319 319 318 317 316 316 316 316 315 312 311 309 308 307 305 304 305 307 306 304 302 300 299 299 299 299 300 299 296 293 288 280 277 278 276 276 276 276
200 198 196 195 196 199 207 220 239 261 286 300 310 317 320 323 325 326 328 329 330 330 330 331 333 333 332 331 330 329 330 332 332 331 330 329 328 326 325 323 321 321 319 317 316 316 316 316 317 316 315 315 314 313 313 313 311 310 308 307 305 304 304 307 308 306 304 302 300 298 298 298 298 298 297 296 295 289 276 272 274 273 271 272 273
197 195 195 198 202 209 220 236 258 281 301 310 316 321 324 326 329 330 331 331 331 331 331 330 330 331 329 329 329 328 328 329 332 331 329 329 328 326 325 323 321 320 318 316 314 314 314 314 313 313 312 312 312 310 310 310 309 308 306 304 302 302 305 307 305 304 302 301 300 298 298 298 298 296 296 296 295 291 283 277 275 270 267 268 270
196 196 199 203 210 221 234 256 282 300 312 318 322 326 328 329 331 331 331 331 330 330 329 327 327 327 328 327 328 328 328 329 330 331 329 328 327 325 323 322 320 318 316 315 314 313 312 311 310 310 309 309 308 308 307 306 306 305 304 301 299 301 304 304 302 301 301 299 299 299 298 298 297 295 295 295 294 293 289 284 280 274 269 269 269
197 199 204 210 220 236 256 281 299 309 318 323 326 329 329 329 329 328 328 327 326 326 325 324 324 324 325 326 326 327 329 329 329 329 328 326 324 323 321 319 318 317 315 313 312 311 311 310 308 307 307 306 306 306 305 304 304 303 303 301 301 302 303 301 301 301 301 299 299 299 298 298 297 296 295 294 292 292 290 287 284 281 277 274 272
201 205 212 221 236 255 276 294 307 314 321 324 326 327 326 326 325 325 324 324 323 324 323 322 322 321 322 324 326 327 329 329 328 327 325 323 321 320 319 318 317 316 315 313 312 311 311 309 308 307 307 306 305 304 304 304 304 303 304 304 304 304 302 299 299 300 300 300 299 298 298 297 296 295 294 292 291 290 289 288 287 285 283 281 278
206 212 221 235 252 269 284 300 310 316 320 322 323 323 323 323 323 323 322 322 322 322 322 322 322 322 323 324 326 328 328 327 326 325 323 322 320 319 319 318 317 317 315 313 312 311 310 308 308 307 307 306 306 306 305 305 305 305 306 306 306 305 302 299 298 298 298 298 297 296 296 296 294 292 292 291 291 290 289 289 289 287 286 285 283
213 220 230 244 259 275 291 303 311 316 318 319 319 319 319 320 321 321 322 321 321 322 323 325 326 326 326 326 326 327 327 326 325 324 323 322 320 319 318 317 316 315 314 313 312 311 310 310 309 309 309 308 308 308 307 306 306 307 307 307 307 307 304 302 301 301 298 297 295 294 295 295 294 292 291 292 291 291 291 290 289 289 287 285 284
220 227 238 251 266 282 296 305 310 313 314 314 315 317 318 319 320 321 321 320 321 324 326 328 328 328 328 327 326 326 325 325 325 324 323 321 319 318 317 316 315 315 315 314 314 313 313 312 312 311 311 311 311 311 310 309 309 309 309 309 309 309 307 306 305 303 299 297 296 295 296 297 297 296 296 296 294 293 292 291 290 290 287 285 284
227 235 246 261 276 289 299 303 306 309 310 312 314 316 317 319 319 319 320 321 323 326 328 329 329 328 327 326 325 324 324 324 325 324 322 320 319 317 316 315 315 316 316 316 316 315 314 314 314 314 313 313 313 312 311 311 312 312 313 314 313 311 310 309 307 303 300 298 297 297 297 298 299 300 299 298 296 294 294 293 291 288 286 284 283
233 242 256 272 284 293 298 301 304 307 309 311 313 314 315 316 316 318 320 323 326 328 329 329 329 328 327 327 325 324 324 324 324 323 321 320 319 318 317 317 317 318 319 319 319 318 317 316 316 315 314 314 314 314 314 316 317 318 318 318 316 313 311 310 307 303 300 299 298 297 297 297 299 300 300 298 295 295 295 293 289 286 286 285 281
240 253 267 280 288 294 298 302 304 306 307 307 308 309 309 312 315 319 323 325 327 328 329 330 330 329 329 328 326 324 323 324 324 324 323 322 320 319 318 319 320 322 323 323 322 320 319 318 318 318 319 320 320 320 321 322 321 320 319 318 316 314 313 311 308 303 301 300 298 296 295 296 298 300 299 297 295 294 293 291 288 287 287 284 279
253 267 276 285 292 296 299 301 302 302 303 303 304 305 308 312 316 320 323 325 327 328 329 329 330 329 329 328 327 325 324 323 324 324 323 322 321 321 321 322 323 324 325 326 324 321 320 321 322 324 327 327 326 325 324 323 321 319 319 318 316 315 314 311 309 307 305 302 299 296 296 295 296 297 296 294 293 293 292 290 290 289 287 282 277
267 277 283 289 294 296 297 298 298 298 298 298 299 302 307 313 316 319 321 324 326 328 328 328 329 328 327 327 328 327 326 324 322 321 320 319 320 320 322 323 325 327 328 328 325 322 323 326 328 329 330 329 327 325 323 322 321 320 320 319 318 317 316 315 313 312 310 307 304 302 299 296 295 295 293 292 293 294 293 292 291 289 285 281 277
274 282 288 290 291 292 293 293 293 293 294 295 297 300 305 311 315 317 320 324 326 327 327 327 327 327 326 325 325 325 324 323 322 322 322 321 321 322 323 324 327 330 332 329 326 325 328 330 331 331 330 328 325 324 323 322 321 320 320 319 319 320 320 319 318 316 314 311 310 308 304 300 298 296 294 293 295 296 295 293 290 287 283 281 277
279 283 285 286 286 287 287 286 287 289 290 293 296 300 305 309 313 316 320 323 324 325 326 327 327 326 326 326 324 323 324 325 326 327 327 326 326 325 325 326 329 331 333 331 330 332 334 334 332 331 330 327 325 323 323 322 321 321 321 321 320 321 320 320 319 317 315 313 312 310 308 305 302 299 297 298 299 298 295 292 288 285 283 281 278
280 280 280 280 280 280 280 280 283 285 287 291 297 303 307 309 311 314 317 320 323 324 326 326 326 326 326 327 327 326 327 329 330 331 330 330 329 328 328 328 330 333 335 335 336 337 338 335 332 329 327 325 324 324 324 324 324 325 325 324 324 323 323 322 321 318 316 315 313 312 310 309 306 303 301 301 301 299 295 292 289 286 284 281 279
276 275 275 275 275 275 276 278 281 283 288 294 300 304 307 309 311 314 315 317 320 322 323 325 325 326 327 329 330 331 332 333 334 333 333 332 332 331 330 330 332 336 340 341 342 342 341 337 333 330 329 329 330 331 331 331 331 331 330 328 327 325 324 324 322 319 318 317 316 314 312 311 309 305 304 303 302 300 296 293 289 287 285 283 280
273 273 273 272 271 272 274 276 280 285 290 295 298 301 305 309 313 315 317 318 319 319 321 323 326 327 329 331 334 336 337 337 336 336 335 335 335 334 334 334 335 337 340 342 343 344 344 341 338 337 336 337 338 338 338 338 337 335 332 330 329 327 326 324 322 320 318 317 317 316 314 313 311 309 308 307 305 302 298 295 292 290 287 285 282
272 271 271 269 268 270 273 276 280 285 288 291 295 300 305 310 314 317 319 320 319 318 319 322 325 329 332 334 336 337 339 340 339 339 339 339 339 339 338 339 340 340 340 341 341 342 344 345 343 342 343 342 342 343 344 343 341 338 336 335 334 332 331 329 326 324 321 319 319 319 318 318 317 317 315 313 310 308 303 299 296 293 290 288 286
268 267 266 265 266 268 271 275 279 283 286 289 294 301 307 312 316 318 319 318 318 319 321 323 326 330 334 337 337 338 339 341 341 342 342 342 342 342 343 343 342 341 340 339 339 338 340 343 344 345 346 345 343 344 345 344 341 340 340 339 338 338 336 334 332 331 328 326 325 326 326 326 325 324 321 318 316 315 310 304 301 299 297 293 288
264 264 262 262 264 266 269 273 278 280 283 288 296 304 310 313 316 317 318 318 319 321 323 326 329 332 334 336 337 337 339 341 343 343 344 344 344 344 345 344 343 341 338 337 336 335 336 338 341 344 345 344 344 344 344 343 343 343 342 341 341 341 341 339 337 336 333 331 329 328 328 328 328 329 327 322 319 318 314 310 308 305 302 297 289
262 261 260 260 262 265 268 271 274 276 282 291 300 307 310 313 316 317 318 319 321 323 325 328 331 332 333 333 334 335 338 342 344 344 344 344 345 345 345 345 344 343 340 337 335 333 333 335 338 341 342 343 343 343 343 343 344 344 344 343 343 344 344 344 343 341 339 337 334 331 330 329 329 330 329 325 322 319 316 314 313 309 304 299 293
259 258 257 258 260 263 265 268 271 276 286 296 302 306 309 313 316 318 319 320 322 324 326 328 330 331 331 331 333 335 337 339 341 342 342 343 343 344 345 346 346 345 343 339 336 334 333 334 336 337 339 340 341 341 342 344 344 344 345 345 345 344 344 344 344 344 343 343 341 339 337 335 334 334 332 330 327 324 320 320 320 315 307 301 296
255 255 255 256 258 260 262 265 272 280 290 297 300 304 310 314 316 318 319 321 322 323 325 326 327 327 329 330 331 333 333 334 336 337 339 340 341 341 343 345 346 346 345 343 339 336 334 334 335 336 336 337 337 339 340 341 342 342 343 344 344 344 343 343 345 346 346 346 345 345 343 342 342 341 340 338 336 335 333 331 328 321 310 302 296
252 252 253 254 255 258 261 267 275 283 290 294 299 304 309 313 315 316 318 319 320 319 321 322 323 325 327 328 329 329 329 330 331 332 334 335 336 338 340 342 344 345 346 345 343 340 337 336 336 336 335 334 333 335 336 338 338 339 340 341 343 344 344 344 347 349 349 348 347 346 345 346 347 347 346 347 348 347 343 337 331 325 317 307 299
250 250 251 252 253 257 262 268 275 281 285 291 297 302 307 311 314 315 315 316 316 316 318 320 321 323 325 327 327 326 327 328 329 329 330 330 331 333 335 337 339 341 343 344 343 342 340 338 338 339 337 334 332 330 331 332 333 334 335 337 340 342 343 345 348 351 351 350 348 347 346 348 350 350 350 352 354 354 350 343 336 331 325 317 307
248 248 249 251 254 258 263 267 271 277 282 288 294 300 306 309 311 311 312 313 314 315 317 319 321 322 324 325 326 327 328 329 329 329 329 329 328 329 330 331 333 335 337 339 341 341 340 339 339 340 341 339 336 333 331 330 330 331 331 332 334 336 339 343 347 350 351 350 349 349 349 350 352 352 352 355 358 358 356 352 347 343 338 330 320
246 246 248 251 254 257 261 264 268 274 280 286 292 298 303 306 308 309 311 311 312 314 317 319 321 322 323 325 327 329 330 331 332 331 331 330 330 329 328 327 328 329 331 334 336 336 337 338 338 339 340 341 341 340 338 336 335 334 334 333 333 335 337 339 342 346 348 348 349 351 353 354 354 352 352 354 358 360 1 0 358 354 349 343 334
243 245 247 250 252 254 258 262 267 273 279 284 290 296 300 303 306 308 309 309 312 314 316 318 321 322 322 325 327 328 329 330 331 331 332 332 332 332 330 328 327 326 326 328 329 330 332 333 334 335 336 338 340 341 341 341 341 342 341 340 340 342 344 344 343 343 345 346 348 352 356 358 357 355 353 353 356 359 2 5 7 6 2 357 351
242 243 245 247 249 253 256 261 265 272 277 283 289 295 300 302 304 305 306 308 310 313 315 317 319 319 320 322 323 323 324 326 326 327 328 329 330 331 331 331 330 328 327 326 325 325 326 327 328 329 331 333 334 336 338 340 341 343 343 343 344 347 350 350 348 346 345 344 345 351 357 0 0 359 357 356 357 360 3 7 11 14 13 10 7
241 242 244 246 249 252 255 259 265 270 276 282 288 293 297 300 301 303 304 306 309 311 313 315 316 317 317 318 319 319 320 320 321 322 323 324 325 326 327 328 329 330 330 329 327 325 323 323 323 324 325 327 328 330 332 335 337 338 339 340 343 347 349 349 348 348 348 346 345 347 353 359 2 2 2 2 4 4 5 6 10 15 18 18 19
240 241 244 246 248 251 255 259 265 270 275 281 287 291 294 298 299 300 302 304 307 309 311 312 313 315 315 314 315 315 316 317 318 319 319 320 320 321 321 322 324 325 327 329 330 328 326 324 322 321 322 322 323 324 327 329 331 333 334 335 339 343 344 344 343 345 347 348 348 348 349 353 357 359 2 7 11 12 10 10 12 14 15 17 25
240 241 243 246 248 251 255 260 265 271 276 280 285 289 292 294 296 298 300 302 304 307 309 310 311 312 312 312 313 313 314 315 315 316 316 317 317 317 317 318 318 320 321 323 326 328 328 327 325 323 321 320 320 321 322 324 326 328 329 331 334 336 337 337 337 339 341 345 347 348 348 348 349 351 355 1 7 11 15 17 19 19 20 22 33
239 240 243 245 248 251 256 261 266 271 275 279 284 287 289 291 294 296 298 301 304 307 308 309 310 310 310 311 311 312 312 313 313 313 313 314 314 314 314 314 315 316 317 318 320 323 325 327 327 327 325 323 322 320 320 320 322 323 325 326 328 329 329 329 330 332 335 338 341 343 344 344 344 344 346 349 353 359 6 11 13 18 23 29 39